Weather History for Suffolk, VA

Change the Weather History Date:

Tuesday, February 19, 2013

  Actual Average Record
Temperature  
Mean Temperature 42 °F -  
Max Temperature 57 °F 55 °F 75 °F (1961)
Min Temperature 28 °F 35 °F 8 °F (1999)
Degree Days  
Heating Degree Days 22    
Moisture  
Dew Point 41 °F    
Average Humidity 82    
Maximum Humidity 94    
Minimum Humidity 67    
Precipitation  
Precipitation 0.04 in - - ()
Sea Level Pressure  
Sea Level Pressure 30.02 in    
Wind  
Wind Speed 7 mph (SSW)    
Max Wind Speed 16 mph    
Max Gust Speed 29 mph    
Visibility 10 miles    
Events Rain    
Averages and records for this station are not official NWS values.
T = Trace of Precipitation, MM = Missing Value Source: NWS Daily Summary

Daily Weather History Graph

Daily Weather History Graph

Search for Another Location

Airport:

Trip Planner

Search our weather history database for the weather conditions in past years. The results will help you decide how hot, cold, wet, or windy it might be!

Date:

Astronomy

Feb. 19, 2013 Rise Set
Actual Time 6:49 AM EST 5:51 PM EST
Civil Twilight 6:23 AM EST 6:17 PM EST
Nautical Twilight 5:53 AM EST 6:47 PM EST
Astronomical Twilight 5:23 AM EST 7:17 PM EST
Moon 12:25 PM EST 2:14 AM EST
Length of Visible Light 11h 54m
Length of Day
11h 01m
Waxing Gibbous, 67% of the Moon is Illuminated
Feb 19
Waxing Gibbous
Feb 25
Full
Mar 4
Last Quarter
Mar 11
New
Mar 19
First Quarter

Hourly Weather History & Observations

Time (EST) Temp. Windchill Dew Point Humidity Pressure Visibility Wind Dir Wind Speed Gust Speed Precip Events Conditions
12:15 AM 35.6 °F 29.9 °F 26.6 °F 70% 30.29 in 10.0 mi SSW 6.9 mph - N/A   Clear
12:55 AM 35.6 °F - 26.6 °F 70% 30.29 in 10.0 mi Calm Calm - N/A   Clear
1:15 AM 35.6 °F - 26.6 °F 70% 30.28 in 10.0 mi Calm Calm - N/A   Clear
1:35 AM 33.8 °F 28.6 °F 26.6 °F 75% 30.26 in 10.0 mi South 5.8 mph - N/A   Clear
1:55 AM 33.8 °F 28.6 °F 26.6 °F 75% 30.25 in 10.0 mi South 5.8 mph - N/A   Clear
2:15 AM 33.8 °F 27.7 °F 26.6 °F 75% 30.24 in 10.0 mi South 6.9 mph - N/A   Clear
2:35 AM 35.6 °F 30.7 °F 26.6 °F 70% 30.23 in 10.0 mi South 5.8 mph - N/A   Clear
3:15 AM 33.8 °F - 26.6 °F 75% 30.23 in 10.0 mi Calm Calm - N/A   Clear
3:35 AM 30.2 °F - 26.6 °F 86% 30.22 in 10.0 mi Calm Calm - N/A   Clear
3:55 AM 28.4 °F - 26.6 °F 93% 30.21 in 10.0 mi Calm Calm - N/A   Clear
4:15 AM 30.2 °F 25.4 °F 26.6 °F 86% 30.21 in 10.0 mi South 4.6 mph - N/A   Clear
4:35 AM 30.2 °F 24.3 °F 26.6 °F 86% 30.20 in 10.0 mi South 5.8 mph - N/A   Clear
4:55 AM 32.0 °F 26.4 °F 28.4 °F 87% 30.19 in 10.0 mi SSE 5.8 mph - N/A   Clear
5:15 AM 33.8 °F 29.6 °F 28.4 °F 81% 30.18 in 10.0 mi South 4.6 mph - N/A   Clear
5:35 AM 33.8 °F 29.6 °F 30.2 °F 87% 30.17 in 10.0 mi SSE 4.6 mph - N/A   Clear
5:55 AM 33.8 °F 30.8 °F 30.2 °F 87% 30.17 in 10.0 mi South 3.5 mph - N/A   Clear
6:15 AM 33.8 °F 30.8 °F 30.2 °F 87% 30.16 in 10.0 mi South 3.5 mph - N/A   Scattered Clouds
6:35 AM 35.6 °F 32.8 °F 30.2 °F 81% 30.15 in 10.0 mi SSE 3.5 mph - N/A   Scattered Clouds
6:55 AM 35.6 °F 31.7 °F 32.0 °F 87% 30.14 in 10.0 mi SSE 4.6 mph - N/A   Clear
7:35 AM 37.4 °F 33.8 °F 35.6 °F 93% 30.14 in 10.0 mi South 4.6 mph - N/A   Clear
7:55 AM 39.2 °F 35.0 °F 35.6 °F 87% 30.13 in 10.0 mi South 5.8 mph - N/A   Clear
8:15 AM 42.8 °F 39.3 °F 37.4 °F 81% 30.13 in 10.0 mi South 5.8 mph - N/A   Clear
8:35 AM 44.6 °F 39.2 °F 39.2 °F 81% 30.12 in 10.0 mi South 10.4 mph - N/A   Clear
8:55 AM 46.4 °F 42.4 °F 39.2 °F 76% 30.11 in 10.0 mi South 8.1 mph - N/A   Clear
9:15 AM 46.4 °F 42.9 °F 42.8 °F 87% 30.11 in 10.0 mi South 6.9 mph - N/A   Clear
9:35 AM 51.8 °F - 42.8 °F 71% 30.10 in 10.0 mi South 10.4 mph - N/A   Clear
9:55 AM 51.8 °F - 44.6 °F 76% 30.09 in 10.0 mi South 10.4 mph - N/A   Clear
10:15 AM 51.8 °F - 44.6 °F 76% 30.08 in 10.0 mi South 8.1 mph - N/A   Clear
10:35 AM 53.6 °F - 44.6 °F 72% 30.07 in 10.0 mi South 9.2 mph - N/A   Clear
10:55 AM 55.4 °F - 44.6 °F 67% 30.07 in 10.0 mi South 13.8 mph 18.4 mph N/A   Clear
11:15 AM 57.2 °F - 46.4 °F 67% 30.05 in 10.0 mi South 16.1 mph - N/A   Clear
11:35 AM 57.2 °F - 46.4 °F 67% 30.03 in 10.0 mi South 15.0 mph 18.4 mph N/A   Clear
11:55 AM 57.2 °F - 46.4 °F 67% 30.01 in 10.0 mi South 12.7 mph - N/A   Clear
12:15 PM 57.2 °F - 46.4 °F 67% 29.99 in 10.0 mi South 10.4 mph 19.6 mph N/A   Clear
12:35 PM 57.2 °F - 48.2 °F 72% 29.97 in 10.0 mi South 11.5 mph - N/A   Scattered Clouds
12:55 PM 57.2 °F - 48.2 °F 72% 29.95 in 10.0 mi South 13.8 mph 19.6 mph N/A   Scattered Clouds
1:35 PM 55.4 °F - 51.8 °F 88% 29.95 in 10.0 mi SSW 10.4 mph - 0.01 in Rain Light Rain
1:55 PM 55.4 °F - 51.8 °F 88% 29.94 in 10.0 mi SSW 9.2 mph - 0.01 in Rain Light Rain
2:15 PM 55.4 °F - 53.6 °F 94% 29.91 in 10.0 mi SSW 11.5 mph - 0.01 in   Light Drizzle
2:35 PM 55.4 °F - 53.6 °F 94% 29.89 in 10.0 mi South 12.7 mph 16.1 mph 0.01 in   Scattered Clouds
2:55 PM 55.4 °F - 53.6 °F 94% 29.87 in 10.0 mi South 12.7 mph - 0.01 in   Scattered Clouds
3:15 PM 57.2 °F - 51.8 °F 82% 29.86 in 10.0 mi SSW 13.8 mph 17.3 mph N/A   Scattered Clouds
3:35 PM 57.2 °F - 53.6 °F 88% 29.86 in 10.0 mi SSW 10.4 mph - N/A   Overcast
3:55 PM 57.2 °F - 53.6 °F 88% 29.85 in 10.0 mi SSW 11.5 mph - N/A   Overcast
4:15 PM 57.2 °F - 53.6 °F 88% 29.85 in 10.0 mi SSW 10.4 mph - N/A   Mostly Cloudy
4:35 PM 57.2 °F - 51.8 °F 82% 29.84 in 10.0 mi SSW 11.5 mph - N/A   Mostly Cloudy
4:55 PM 57.2 °F - 51.8 °F 82% 29.82 in 10.0 mi SSW 12.7 mph 17.3 mph N/A   Overcast
5:15 PM 57.2 °F - 51.8 °F 82% 29.81 in 10.0 mi SSW 15.0 mph 23.0 mph N/A   Overcast
5:35 PM 57.2 °F - 50.0 °F 77% 29.81 in 10.0 mi SSW 13.8 mph 28.8 mph N/A   Overcast
5:55 PM 57.2 °F - 50.0 °F 77% 29.82 in 7.0 mi SW 13.8 mph 18.4 mph N/A   Overcast
6:15 PM 55.4 °F - 51.8 °F 88% 29.83 in 7.0 mi SW 16.1 mph 24.2 mph N/A   Light Drizzle
6:35 PM 55.4 °F - 51.8 °F 88% 29.83 in 7.0 mi WSW 11.5 mph 16.1 mph N/A Rain Heavy Rain
7:35 PM 53.6 °F - 51.8 °F 94% 29.86 in 10.0 mi WSW 16.1 mph 19.6 mph 0.02 in Rain Light Rain
7:55 PM 51.8 °F - 48.2 °F 88% 29.86 in 10.0 mi WSW 12.7 mph - 0.02 in   Scattered Clouds
8:15 PM 51.8 °F - 48.2 °F 88% 29.87 in 10.0 mi WSW 9.2 mph - N/A   Scattered Clouds
8:55 PM 50.0 °F - 46.4 °F 87% 29.88 in 10.0 mi WSW 9.2 mph - N/A   Scattered Clouds
9:15 PM 50.0 °F - 46.4 °F 87% 29.88 in 10.0 mi WSW 10.4 mph - N/A   Scattered Clouds
9:35 PM 48.2 °F - 46.4 °F 93% 29.89 in 10.0 mi WSW 10.4 mph - N/A   Scattered Clouds
9:55 PM 48.2 °F - 46.4 °F 93% 29.89 in 10.0 mi WSW 12.7 mph - N/A   Clear
10:15 PM 48.2 °F - 44.6 °F 87% 29.89 in 10.0 mi WSW 9.2 mph - N/A   Clear
10:35 PM 48.2 °F - 44.6 °F 87% 29.89 in 10.0 mi West 10.4 mph - N/A   Clear
10:55 PM 46.4 °F 41.5 °F 44.6 °F 93% 29.90 in 10.0 mi West 10.4 mph - N/A   Clear
11:15 PM 46.4 °F 41.9 °F 42.8 °F 87% 29.90 in 10.0 mi West 9.2 mph - N/A   Clear
11:35 PM 46.4 °F 42.4 °F 42.8 °F 87% 29.90 in 10.0 mi West 8.1 mph 16.1 mph N/A   Clear
11:55 PM 46.4 °F 41.9 °F 42.8 °F 87% 29.90 in 10.0 mi WSW 9.2 mph - N/A   Clear